User: anonymous   Login
Location: Bridgewater Hill Observatory
(43.5992°N, 72.6989°W)
Time: 10:15:41
(UTC-04:00)
Language:

Cosmos 1452 Rocket - Orbit

View from above orbital plane
View from above orbital plane
View from above satellite
View from above satellite

Ground track
Ground track

The orbit data is extracted from the following two-line orbital elements,

1 13992U 83031B   15148.57867205  .00000130  00000-0  53736-4 0  9990
2 13992 074.0530 303.6968 0004243 115.8084 312.1096 14.35942488681061
Epoch (UTC): 28 May 2015 13:53:17
Eccentricity: 0.0004243
inclination: 74.0530°
perigee height: 769 km
apogee height: 775 km
right ascension of ascending node: 303.6968°
argument of perigee: 115.8084°
revolutions per day: 14.35942488
mean anomaly at epoch: 312.1096°
orbit number at epoch: 68106

The dashed part of the orbit path shows where the satellite is in the earth's shadow,  

DLR